CVBQ Weather Reports


Display with metric or nautical units.
time (UTC)temp
F
wind
direction
speed
MPH
gust
MPH
rain 1hr
in
rain 24hr
in
rain mn
in
humidity
%
barometer
mb
20260504173058 59 238 2.0 9.0 0.00 0.00 0.00 65 1020.7
20260504171555 60 225 4.0 9.0 0.00 0.00 0.00 65 1020.6
20260504081506 54 181 0.0 2.0 0.00 0.21 0.00 93 1020.5
20260504044558 49 241 0.0 0.0 0.00 0.21 0.00 97 1019.2
20260504043046 49 241 0.0 0.0 0.00 0.21 0.00 97 1019.2
20260504041544 49 241 0.0 0.0 0.00 0.21 0.00 97 1019.2
20260504040044 48 241 0.0 0.0 0.00 0.21 0.00 97 1019.3
20260504034551 48 241 0.0 0.0 0.00 0.21 0.00 97 1019.2
20260504033052 49 241 0.0 0.0 0.00 0.21 0.00 97 1019.3
20260504031542 48 241 0.0 0.0 0.00 0.21 0.00 97 1019.4
20260504030041 49 241 0.0 0.0 0.00 0.21 0.00 96 1019.4
20260504024545 49 241 0.0 1.0 0.00 0.21 0.00 97 1019.3
20260504023040 48 241 0.0 0.0 0.00 0.21 0.00 96 1019.4
20260504021541 48 241 0.0 0.0 0.00 0.21 0.00 97 1019.3
20260504020037 48 241 0.0 0.0 0.00 0.21 0.00 96 1019.4
20260504014539 48 241 0.0 0.0 0.00 0.21 0.00 96 1019.5
20260504013038 48 241 0.0 0.0 0.00 0.21 0.00 96 1019.5
20260504011533 48 246 0.0 0.0 0.00 0.21 0.00 95 1019.6
20260504010046 49 246 0.0 0.0 0.00 0.22 0.00 96 1019.7
20260504004531 49 246 0.0 0.0 0.00 0.22 0.00 95 1019.7
20260504003028 49 246 0.0 0.0 0.00 0.22 0.00 95 1019.7
20260504001528 49 246 0.0 0.0 0.00 0.22 0.00 95 1019.8
20260504000028 50 246 0.0 1.0 0.00 0.22 0.00 94 1019.8
20260503234527 50 246 0.0 0.0 0.00 0.22 0.00 95 1019.8
20260503233025 50 246 0.0 0.0 0.00 0.22 0.00 94 1019.8
20260503231525 50 250 0.0 1.0 0.00 0.22 0.00 95 1019.9
20260503230021 49 242 0.0 2.0 0.00 0.22 0.22 95 1019.9
20260503224519 48 240 0.0 1.0 0.00 0.22 0.22 94 1019.9
20260503223018 49 239 0.0 0.0 0.00 0.22 0.22 94 1020.0
20260503221528 48 236 0.0 1.0 0.00 0.22 0.22 93 1019.9
20260503220018 49 230 0.0 0.0 0.00 0.22 0.22 91 1019.9
20260503214514 50 230 0.0 0.0 0.00 0.22 0.22 89 1019.9
20260503213026 51 230 0.0 0.0 0.00 0.22 0.22 88 1019.9
20260503211518 52 230 0.0 0.0 0.00 0.22 0.22 88 1019.7
20260503210012 52 227 0.0 1.0 0.00 0.22 0.22 87 1019.6
20260503204511 53 244 0.0 2.0 0.00 0.22 0.22 85 1019.4
20260503203011 53 232 0.0 3.0 0.00 0.22 0.22 84 1019.2
20260503201524 53 258 0.0 2.0 0.00 0.22 0.22 84 1019.1
20260503200011 54 253 0.0 1.0 0.00 0.22 0.22 84 1018.8
20260503194508 55 259 0.0 3.0 0.00 0.22 0.22 82 1018.6
20260503193008 55 244 0.0 2.0 0.00 0.22 0.22 80 1018.5
20260503191507 56 245 2.0 5.0 0.00 0.22 0.22 78 1018.2
20260503190017 57 255 2.0 5.0 0.00 0.22 0.22 77 1018.2
20260503184507 58 232 2.0 8.0 0.00 0.22 0.22 75 1017.9
20260503183013 60 248 4.0 7.0 0.00 0.22 0.22 71 1017.7
20260503181510 60 229 2.0 8.0 0.00 0.22 0.22 74 1017.7
20260503180004 60 261 4.0 8.0 0.00 0.32 0.22 73 1017.7
20260503174502 60 250 3.0 8.0 0.00 0.32 0.22 75 1017.6